Track COSMOS 1257 now! 10-day predictions COSMOS 1257 is classified as:
1 12327U 81022H 21110.95964769 -.00000018 00000-0 -17559-4 0 9990 2 12327 74.0330 31.8828 0007518 237.1313 197.8958 12.47820077827759